Regional Weather Roundup
Issued by NWS

Home | Current Version | Previous Version | Text Only | Print | Product List | Glossary Off
Versions: 1 2 3 4 5 6 7 8 9 10 11 12 13 14 15 16 17 18 19 20 21 22 23 24 25 26 27 28 29 30 31 32 33 34 35 36 37 38 39 40 41 42 43 44 45 46 47 48 49 50

000
ASUS43 KIND 221009
RWRIN

WEATHER ROUNDUP FOR INDIANA
NATIONAL WEATHER SERVICE INDIANAPOLIS IN
600 AM EDT TUE AUG 22 2017

NOTE: "FAIR" INDICATES FEW OR NO CLOUDS BELOW 12,000 FEET WITH NO
SIGNIFICANT WEATHER AND/OR OBSTRUCTIONS TO VISIBILITY.

* - STATION DOES NOT REPORT WEATHER SUCH AS PRECIPITATION OR FOG.

+ - STATION NOT QUALITY CONTROLLED BY THE NATIONAL WEATHER SERVICE.
    USE DATA WITH CAUTION...ESPECIALLY DEWPOINT AND RELATIVE
    HUMIDITY OBSERVATIONS.

INZ001>003-010>013-019-020-221100-
NORTHWEST INDIANA

CITY           SKY/WX    TMP DP  RH WIND       PRES   REMARKS
GARY /AIRPORT/ LGT RAIN  72  70  94 SW9       29.89F
KNOX *+        CLOUDY    68  68 100 SW12G20   29.91F
LA PORTE +     RAIN      69  68  96 SW14G25   29.91F
MICHIGAN CITY+ RAIN      70  70 100 SW13G20   29.89F
MONTICELLO +   HVY RAIN  68  67  95 W6        29.94S
RENSSELAER +   HVY RAIN  70  64  83 W12       29.93F
VALPARAISO     LGT RAIN  72  70  93 SW14      29.91F FOG

$$

LMZ046-743>745-221100-
SOUTHERN LAKE MICHIGAN

STATION/POSITION TIME  TEMP    WIND        PRES    WAVE
                       AIR SEA DIR/SP/G            HT
                 (UTC) (F)     (DEG/KT/KT) (MB)    (FT)
BURNS HARBOR     0940   72     220/ 15/ 24 1012.5R
MICHIGAN CITY    0940   71     190/ 19/ 21   N/A
5NW MICH CITY    1000   73 74  230/ 19/ 25   N/A     4

$$

INZ004-005-014>016-021>024-221100-
NORTH CENTRAL INDIANA

CITY           SKY/WX    TMP DP  RH WIND       PRES   REMARKS
GOSHEN         RAIN      70  66  87 SW14      29.91S FOG
LOGANSPORT +   RAIN      68  66  94 W6        29.94F
PERU/GRISSOM   TSTM      70  70 100 W9        29.93S
ROCHESTER +    HVY RAIN N/A N/A N/A W12G18    29.94R
SOUTH BEND     LGT RAIN  69  69 100 SW16      29.89R
WARSAW +       HVY RAIN  68  68 100 SW9       29.93R

$$

INZ006>009-017-018-025>027-221100-
NORTHEAST INDIANA

CITY           SKY/WX    TMP DP  RH WIND       PRES   REMARKS
AUBURN +       RAIN      70  68  94 W3        29.92F
FORT WAYNE     RAIN      70  68  93 W9        29.91F
HUNTINGTON +   LGT RAIN  70  68  96 W8        29.95R

$$

INZ028-029-035-036-043>045-051>053-221100-
WEST CENTRAL INDIANA

CITY           SKY/WX    TMP DP  RH WIND       PRES   REMARKS
GREENCASTLE +  CLOUDY    73  70  88 SW3       29.95R
LAFAYETTE      HVY RAIN  68  68 100 NW5       29.94R FOG
TERRE HAUTE    MOCLDY    75  71  87 SW8       29.93F

$$

INZ030>032-037>040-046>048-054>057-064-065-221100-
CENTRAL INDIANA

CITY           SKY/WX    TMP DP  RH WIND       PRES   REMARKS
CP ATTERBURY + PTCLDY    73  68  83 SW5       29.96S
FRANKFORT +    CLOUDY    73  70  88 NW5       29.96S
GREENWOOD *+   PTCLDY   N/A N/A N/A S3        29.96S
INDIANAPOLIS   CLOUDY    74  70  87 S9        29.93F
-EAGLE CREEK   PTCLDY    75  70  84 SW6       29.93F
KOKOMO +       LGT RAIN  70  70 100 W9        29.96R
MARION +       CLOUDY    70  68  94 W5        29.95S FOG
MT COMFORT *+  PTCLDY    72  68  88 S6        29.96S
SHELBYVILLE    CLEAR     73  67  81 S7        29.95F
ZIONSVILLE +   PTCLDY    72  70  94 SW5       29.95S

$$

INZ033-034-041-042-049-050-058-059-221100-
EAST CENTRAL INDIANA

CITY           SKY/WX    TMP DP  RH WIND       PRES   REMARKS
MUNCIE         CLOUDY    77  68  73 SW8       29.94S
RICHMOND +     CLOUDY    70  68  94 SW9       29.98F

$$

INZ060-061-067>069-081>083-085>088-221100-
SOUTHWEST INDIANA

CITY           SKY/WX    TMP DP  RH WIND       PRES   REMARKS
EVANSVILLE     MOCLDY    75  72  90 SW6       29.98S
HUNTINGBURG +  PTCLDY    73  71  93 S7        29.99R
WASHINGTON +   PTCLDY    73  71  93 MISG      29.96S

$$

INZ062-063-066-070>080-084-089>092-221100-
SOUTH CENTRAL AND SOUTHEAST INDIANA

CITY           SKY/WX    TMP DP  RH WIND       PRES   REMARKS
BEDFORD +      PTCLDY    72  68  88 CALM      29.97S
BLOOMINGTON    PTCLDY    74  70  87 SW5       29.97S
MADISON *+     CLEAR     72  68  88 S6        30.02S
NORTH VERNON + PTCLDY    72  68  88 S6        29.99S
SEYMOUR +      MOCLDY    75  68  78 S8        29.98S

$$




USA.gov is the U.S. government's official web portal to all federal, state and local government web resources and services.